Regional Weather Roundup
Issued by NWS

Home | Current Version | Previous Version | Text Only | Print | Product List | Glossary Off
Versions: 1 2 3 4 5 6 7 8 9 10 11 12 13 14 15 16 17 18 19 20 21 22 23 24 25 26 27 28 29 30 31 32 33 34 35 36 37 38 39 40 41 42 43 44 45 46 47 48 49 50

000
ASUS43 KMPX 291610
RWRMN
WEATHER ROUNDUP FOR MINNESOTA
NATIONAL WEATHER SERVICE TWIN CITIES/CHANHASSEN MN
1100 AM CDT WED OCT 29 2014


NOTE: "FAIR" INDICATES FEW OR NO CLOUDS BELOW 12,000 FEET WITH NO
SIGNIFICANT WEATHER AND/OR OBSTRUCTIONS TO VISIBILITY. N/A MEANS
CURRENT SKY AND/OR WEATHER CONDITIONS ARE NOT AVAILABLE.

MNZ060>063-068>070-291700-
   Twin Cities Metro

CITY           SKY/WX    TMP DP  RH WIND       PRES   REMARKS
TWIN CITIES    CLOUDY    40  30  67 NW10      30.16R
ST PAUL        CLOUDY    40  31  70 W8        30.17R
CRYSTAL        CLOUDY    41  30  65 W8        30.15R
BLAINE         CLOUDY    43  34  70 W10       30.14
LAKEVILLE      CLOUDY    37  30  75 W8        30.16R
EDEN PRAIRIE   CLOUDY    39  30  70 NW8       30.16R
SOUTH ST PAUL  CLOUDY    41  31  67 NW7       30.15S
LAKE ELMO      PTSUNNY   41  32  70 N7        30.15S
$$
MNZ001>005-007-008-013>017-022>024-027-028-291700-
   Northwest Minnesota

CITY           SKY/WX    TMP DP  RH WIND       PRES   REMARKS
BEMIDJI        CLOUDY    33  32  96 W8        30.10R WCI  26
HALLOCK          N/A     36  30  80 W5        30.11S
ROSEAU         CLOUDY    36  30  80 W8        30.09R
WARROAD        CLOUDY    36  30  80 W8        30.09R
THIEF RVR FALL CLOUDY    34  28  80 W8        30.12S WCI  27
CROOKSTON      CLOUDY    36  30  80 W5        30.14S
FOSSTON        CLOUDY    32  30  93 W6        30.13R WCI  26
DETROIT LAKES  CLOUDY    36  30  80 NW8       30.14S
MOORHEAD       CLOUDY    37  30  75 SW5       30.16S
PARK RAPIDS    CLOUDY    34  32  92 W9        30.11R WCI  27
MAHNOMEN       CLOUDY    34  30  87 W8        30.13R WCI  27
$$
MNZ006-009>011-018-025>026-291700-
   North Central Minnesota

CITY           SKY/WX    TMP DP  RH WIND       PRES   REMARKS
BAUDETTE       CLOUDY    35  33  92 MISG      30.07R
FLAG ISLAND    CLOUDY    34  32  93 NW9       30.05S WCI  26
INTL FALLS     CLOUDY    37  35  92 W6        30.05S
WASKISH        CLOUDY    36  34  93 CALM      30.08S
BIG FORK       CLOUDY    36  34  93 W5        30.08R
LONGVILLE      CLOUDY    34  32  93 W7        30.10S WCI  28
GRAND RAPIDS   CLOUDY    37  32  81 W7        30.07S
CRANE LAKE     CLOUDY    36  34  93 W3        30.07R
ORR            CLOUDY    37  34  87 W3        30.03S
COOK           CLOUDY    36  34  93 W6        30.06S
WALKER         CLOUDY    32  31  94 W6        30.11R WCI  27
$$
MNZ012-019>021-037-291700-
   Northeast Minnesota

CITY           SKY/WX    TMP DP  RH WIND       PRES   REMARKS
DULUTH         PTSUNNY   37  32  82 NW17      30.06R
ELY            CLOUDY    37  34  87 W5        30.04S
HIBBING        CLOUDY    38  33  82 NW6       30.07F
EVELETH        CLOUDY    36  34  93 W9        30.08R
DULUTH HARBOR  CLOUDY    41  34  75 W7        30.10S
TWO HARBORS    CLOUDY    43  25  49 NW7       30.04R
SILVER BAY     SUNNY     39  34  81 W6        30.03R
GRAND MARAIS     N/A     42  30  62 VRB3      30.03R
G MARAIS ARPRT MOSUNNY   36  27  69 NW10G16   30.00R
$$
MNZ029>031-032-039>041-046>048-054>057-064-291700-
   West Central Minnesota

CITY           SKY/WX    TMP DP  RH WIND       PRES   REMARKS
FERGUS FALLS   CLOUDY    36  27  69 W7        30.17S
WHEATON        CLOUDY    34  27  75 W3        30.19S
MORRIS         MOSUNNY   37  30  75 W9        30.16F
ALEXANDRIA     CLOUDY    35  28  75 NW7       30.15S WCI  29
ELBOW LAKE     CLOUDY    35  29  79 NW6       30.16S WCI  30
WADENA         CLOUDY    34  30  86 W6        30.12S WCI  29
GLENWOOD       CLOUDY    36  28  75 NW6       30.16R
APPLETON       CLOUDY    39  30  70 W8        30.17F
BENSON         CLOUDY    37  28  70 NW8       30.17F
ORTONVILLE     CLOUDY    36  27  69 W7        30.17F
MADISON        PTSUNNY   39  30  70 NW6       30.18F
WILLMAR        CLOUDY    37  28  70 NW10      30.18S
$$
MNZ033>034-036-042>043-049>051-058-059-291700-
   Central Minnesota

CITY           SKY/WX    TMP DP  RH WIND       PRES   REMARKS
ST CLOUD       CLOUDY    38  30  73 NW7       30.15S
SAUK CENTRE    CLOUDY    36  30  79 W6        30.15S
PAYNESVILLE    CLOUDY    33  29  85 SW7       30.16S WCI  27
AITKIN         CLOUDY    39  32  75 W5        30.10R
PINE RIVER     CLOUDY    34  30  86 CALM      30.14S
BRAINERD       CLOUDY    34  31  88 W5        30.12S WCI  30
STAPLES        CLOUDY    34  30  86 NW7       30.13R WCI  28
LONG PRAIRIE   CLOUDY    36  30  80 W6        30.14S
LITTLE FALLS   CLOUDY    34  30  86 CALM      30.14S
LITCHFIELD     CLOUDY    37  32  81 NW9       30.17R
BUFFALO        CLOUDY    37  31  76 W7        30.17S
MAPLE LAKE     CLOUDY    38  32  80 W6        30.17S
$$
MNZ037-044-045-052-053-291700-
   East Central Minnesota

CITY           SKY/WX    TMP DP  RH WIND       PRES   REMARKS
PRINCETON      CLOUDY    39  32  75 W7        30.15S
MORA           CLOUDY    37  32  81 NW7       30.14S
CAMBRIDGE      CLOUDY    43  30  61 W6        30.12S
RUSH CITY      MOSUNNY   40  32  71 NW5       30.13S
MOOSE LAKE     CLOUDY    39  32  75 W8        30.08S
HINCKLEY       CLOUDY    39  34  81 NW5       30.12S
CLOQUET        CLOUDY    37  34  87 W9G17     30.08S
MCGREGOR       CLOUDY    37  34  87 W6        30.10S
$$
MNZ071>073-080-081-089-090-097-098-291700-
   Southwest Minnesota

CITY           SKY/WX    TMP DP  RH WIND       PRES   REMARKS
MONTEVIDEO     CLOUDY    37  30  75 N5        30.19S
GRANITE FALLS  CLOUDY    37  30  75 W5        30.21R
CANBY          CLOUDY    38  32  77 N3        30.19S
MARSHALL       CLOUDY    39  28  65 N7        30.18S
REDWOOD FALLS  CLOUDY    39  29  67 NW8       30.18S
OLIVIA         CLOUDY    37  30  75 W10       30.17S
PIPESTONE      SUNNY     39  30  70 N8        30.16F
WINDOM         SUNNY     39  30  70 NW8       30.18S
WORTHINGTON    MOSUNNY   39  30  70 NW8       30.19S
JACKSON        MOSUNNY   41  30  65 N6        30.18F
TRACY          CLOUDY    40  31  71 W5        30.19S
SLAYTON        MOSUNNY   40  31  71 NW7       30.18S
$$
MNZ065>067-074>077-082>085-091>093-291700-
   South Central Minnesota

CITY           SKY/WX    TMP DP  RH WIND       PRES   REMARKS
MANKATO        CLOUDY    37  27  65 NW8       30.18S
NEW ULM        SUNNY     37  30  75 NW9       30.19R
ST JAMES       CLOUDY    39  30  70 NW12      30.20S
FAIRMONT       CLOUDY    39  27  60 NW9       30.18F
GLENCOE        CLOUDY    39  33  78 W8        30.17R
FARIBAULT      CLOUDY    39  30  70 W10       30.17S
OWATONNA       SUNNY     39  30  70 NW7       30.16F
WASECA         CLOUDY    36  28  75 W7        30.19S
ALBERT LEA     CLOUDY    39  30  70 NW7       30.17S
$$
MNZ078>079-086>088-094>096-291700-
   Southeast Minnesota

CITY           SKY/WX    TMP DP  RH WIND       PRES   REMARKS
ROCHESTER      CLOUDY    38  30  73 NW10      30.15R
RED WING       CLOUDY    43  30  61 N7        30.14S
STANTON        CLOUDY    40  31  70 NW10      30.15S
DODGE CENTER   CLOUDY    39  32  75 NW10      30.15R
WINONA         CLOUDY    41  32  70 NW8       30.14R
AUSTIN         CLOUDY    37  30  75 N12       30.16R
PRESTON        CLOUDY    38  31  74 NW9       30.15R
$$
ABBREVIATIONS USED IN REMARKS
   TC - TEMPERATURES IN CELSIUS
  WCI - WIND CHILL INDEX
   HX - HEAT INDEX
  VSB - VISIBILITY
$$



USA.gov is the U.S. government's official web portal to all federal, state and local government web resources and services.